#timestamp,LO_Frequency,Hit 
1504519215.6,286047007.5,N
1504519235.4,286047005.8,N
1504519255.2,286047008.7,N
1504519275.1,286047008.5,N
1504519276.0,286047008.5,N
1504519295.8,286047008.0,N
1504519315.6,286047010.4,N
1504519335.5,286047008.0,N
1504519355.3,286047003.5,N
1504519375.1,286047005.8,N
1504519395.9,286047004.7,N
1504519415.7,286047003.0,N
1504519435.5,286047006.5,N
1504519455.3,286047007.1,N
1504519475.2,286047004.9,N
1504519495.0,286047005.5,N
1504519495.9,286047005.5,N
1504519515.7,286047004.5,N
1504519535.6,286046999.8,N
1504519555.4,286047000.3,N
1504519575.2,286046998.2,N
1504519595.1,286047001.7,N
1504519596.0,286047001.7,N
1504519615.8,286047003.4,N
1504519635.6,286047001.5,N
1504519655.5,286047001.5,N
1504519675.3,286047001.6,N
1504519695.1,286047004.8,N
1504519715.9,286047002.4,N
1504519735.7,286046999.3,N
1504519755.5,286046998.7,N
1504519775.3,286047000.0,N
1504519795.2,286046997.1,N
1504519815.0,286046996.8,N
1504519815.9,286046996.8,N
1504519835.7,286046999.6,N
1504519855.6,286047000.7,N
1504519875.4,286046998.1,N
1504519895.2,286046999.0,N
1504519915.1,286046998.9,N
1504519916.0,286046998.9,N
1504519935.8,286046994.9,N
1504519955.6,286046997.7,N
1504519975.5,286046995.2,N
1504519995.3,286046997.9,N
1504520015.1,286046998.0,N
1504520035.9,286046995.3,N
1504520055.7,286046995.8,N
1504520075.5,286046996.3,N
1504520095.4,286046993.4,N
1504520115.2,286046994.7,N
1504520135.0,286046992.5,N
1504520135.9,286046992.5,N
1504520155.8,286046994.4,N
1504520175.6,286046993.9,N
1504520195.4,286046993.7,N
1504520215.3,286046995.8,N
1504520235.1,286046993.4,N
1504520236.0,286046993.4,N
1504520255.8,286046992.2,P
1504520275.7,286046996.6,N
1504520295.5,286046994.9,N
1504520315.3,286046993.4,P
1504520335.2,286047000.6,N
1504520355.0,286047003.6,N
1504520355.9,286047003.6,N
1504520375.7,286047003.8,N
1504520395.6,286047003.4,N
1504520415.4,286047004.4,N
1504520435.2,286047005.9,N
1504520455.1,286047009.1,N
1504520456.0,286047009.1,N
1504520475.8,286047009.2,N
1504520495.6,286047007.6,N
1504520515.5,286047004.6,N
1504520535.3,286047005.4,N
1504520555.1,286047006.9,N
1504520575.9,286047005.1,N
1504520595.7,286047004.4,N
1504520615.5,286047004.1,N
1504520635.4,286047004.6,N
1504520655.2,286047005.4,N
1504520675.0,286047005.8,N
1504520675.9,286047005.8,N
1504520695.7,286047006.7,N
1504520715.6,286047003.8,N
1504520735.4,286047000.8,N
1504520755.2,286046998.4,N
1504520775.1,286047001.0,N
1504520776.0,286047001.0,N
1504520795.8,286047000.3,N
1504520815.6,286047000.8,N
1504520835.5,286046998.7,N
1504520855.3,286046998.6,N
1504520875.1,286046999.4,N
1504520895.9,286047001.2,N
1504520915.7,286046998.9,N
1504520935.5,286046999.1,N
1504520955.4,286046993.3,N
1504520975.2,286046995.5,N
1504520995.0,286046994.9,N
1504520995.9,286046994.9,N
1504521015.8,286046999.2,N
1504521035.6,286047001.1,N
1504521055.4,286047000.5,N
1504521075.3,286047000.5,N
1504521095.1,286047002.5,N
1504521096.0,286047002.5,N
1504521115.8,286046999.0,N
1504521135.6,286046994.2,N
1504521155.5,286046995.3,N
1504521175.3,286046993.3,N
1504521195.1,286046999.5,N
1504521215.9,286046995.1,N
1504521235.7,286046997.6,N
1504521255.5,286046997.3,N
1504521275.4,286046996.1,N
1504521295.2,286046995.7,N
1504521315.0,286046995.4,N
1504521315.9,286046995.4,N
1504521335.8,286046994.3,N
1504521355.6,286046996.2,N
1504521375.4,286046996.1,N
1504521395.3,286046997.1,N
1504521415.1,286046995.2,N
1504521416.0,286046995.2,N
1504521435.8,286046995.7,N
1504521455.7,286046998.1,N
1504521475.5,286047002.0,N
1504521495.3,286047004.4,N
1504521515.2,286047004.1,N
1504521535.9,286047001.5,N
1504521555.7,286047001.1,N
1504521575.6,286047000.3,N
1504521595.4,286046999.9,N
1504521615.2,286046999.4,N
1504521635.0,286047004.4,N
1504521636.0,286047004.4,N
1504521655.8,286047002.6,N
1504521675.6,286046999.9,N
1504521695.4,286046999.9,N
1504521715.3,286047000.4,N
1504521735.1,286047002.1,N
1504521755.8,286047002.5,N
1504521775.7,286047002.2,N
1504521795.5,286047000.7,N
1504521815.3,286046999.0,N
1504521835.2,286046997.5,N
1504521855.9,286046996.7,N
1504521875.7,286046998.3,N
1504521895.6,286046999.0,N
1504521915.4,286047000.7,N
1504521935.2,286046999.2,N
1504521955.1,286046997.5,N
1504521956.0,286046997.5,N
1504521975.8,286047002.4,N
1504521995.6,286047004.2,N
1504522015.5,286047000.4,N
1504522035.3,286047000.1,N
1504522055.1,286047002.8,N
1504522075.9,286047001.1,N
1504522095.7,286046998.8,N
1504522115.5,286046998.7,N
1504522135.3,286046996.2,N
1504522155.2,286046999.1,N
1504522175.0,286046998.6,N
1504522175.9,286046998.6,N
1504522195.7,286046998.8,N
1504522215.6,286046995.3,N
1504522235.4,286046997.6,N
1504522255.2,286046995.6,N
1504522275.1,286046993.4,P
1504522276.0,286046993.4,N
1504522295.8,286046997.6,N
1504522315.6,286046997.4,N
1504522335.5,286047000.3,N
1504522355.3,286046999.5,N
1504522375.1,286046994.9,N
1504522395.9,286047000.9,N
1504522415.7,286047001.7,N
1504522435.5,286047006.4,N
1504522455.4,286047007.6,N
1504522475.2,286047007.5,N
1504522495.0,286047004.1,N
1504522495.9,286047004.1,N
1504522515.8,286047004.1,N
1504522535.6,286047000.3,N
1504522555.4,286047002.2,N
1504522575.3,286047003.9,N
1504522595.1,286047002.8,N
1504522596.0,286047002.8,N
1504522615.8,286046999.8,N
1504522635.7,286047002.2,N
1504522655.5,286047002.2,N
1504522675.3,286047003.6,N
1504522695.2,286047000.6,N
1504522715.9,286047001.0,N
1504522735.7,286047001.1,N
1504522755.5,286047004.2,N
1504522775.4,286047003.9,N
1504522795.2,286047002.4,N
